Location: Alexandria
(38.8050°N, 77.0470°W)
Time: 20:42:58
(UTC-04:00)

N. Korean satellite - Pass Details

Date: 18 February 2018
Orbit: 458 x 514 km, 97.2° (Epoch: 23 May)

Event Time Altitude Azimuth Distance (km) Brightness Sun altitude
Rises 18:23:10 0° 181° (S) 2,462 10.3 -7.3°
Reaches altitude 10° 18:25:16 10° 189° (S) 1,593 9.4 -7.7°
Maximum altitude 18:28:31 42° 261° (W) 666 7.9 -8.3°
Drops below altitude 10° 18:31:49 10° 334° (NNW) 1,614 9.5 -9.0°
Sets 18:33:57 0° 342° (NNW) 2,500 10.3 -9.4°
